| time (UTC) | temp C | wind direction | speed KPH | gust KPH | rain 1hr cm | rain 24hr cm | rain mn cm | humidity % | barometer mb |
| 20260831103156 | 21 | 22 | 6.4 | 12.9 | 0.00 | 0.84 | 0.84 | 63 | 1011.0 |
| 20260831102655 | 21 | 33 | 3.2 | 16.1 | 0.00 | 0.84 | 0.84 | 63 | 1011.1 |
| 20260831102155 | 21 | 313 | 4.8 | 20.9 | 0.00 | 0.84 | 0.84 | 63 | 1011.0 |
| 20260831101655 | 21 | 209 | 9.7 | 17.7 | 0.00 | 0.84 | 0.84 | 64 | 1010.9 |
| 20260831101154 | 22 | 338 | 9.7 | 16.1 | 0.00 | 0.84 | 0.84 | 65 | 1011.0 |
| 20260831100654 | 21 | 195 | 0.0 | 14.5 | 0.00 | 0.84 | 0.84 | 65 | 1011.0 |
| 20260831100154 | 21 | 150 | 4.8 | 17.7 | 0.00 | 0.84 | 0.84 | 65 | 1011.1 |
| 20260831095654 | 21 | 85 | 3.2 | 17.7 | 0.00 | 0.84 | 0.84 | 66 | 1011.1 |
| 20260831095153 | 21 | 47 | 8.0 | 19.3 | 0.00 | 0.84 | 0.84 | 66 | 1011.1 |
| 20260831094653 | 21 | 358 | 6.4 | 19.3 | 0.00 | 0.84 | 0.84 | 66 | 1011.1 |
| 20260831094153 | 21 | 91 | 3.2 | 17.7 | 0.00 | 0.84 | 0.84 | 66 | 1011.1 |
| 20260831093652 | 21 | 358 | 4.8 | 17.7 | 0.00 | 0.84 | 0.84 | 66 | 1011.0 |
| 20260831093152 | 21 | 106 | 0.0 | 16.1 | 0.00 | 0.84 | 0.84 | 66 | 1010.9 |
| 20260831092652 | 21 | 9 | 1.6 | 16.1 | 0.00 | 0.84 | 0.84 | 67 | 1011.0 |
| 20260831092152 | 21 | 127 | 1.6 | 17.7 | 0.00 | 0.84 | 0.84 | 68 | 1010.9 |
| 20260831091651 | 21 | 25 | 8.0 | 12.9 | 0.00 | 0.84 | 0.84 | 67 | 1010.9 |
| 20260831091151 | 21 | 53 | 4.8 | 16.1 | 0.00 | 0.84 | 0.84 | 67 | 1011.0 |
| 20260831090651 | 21 | 67 | 4.8 | 20.9 | 0.00 | 0.84 | 0.84 | 67 | 1011.0 |
| 20260831090150 | 21 | 32 | 3.2 | 24.1 | 0.00 | 0.84 | 0.84 | 66 | 1011.0 |
| 20260831085650 | 21 | 320 | 8.0 | 17.7 | 0.00 | 0.84 | 0.84 | 67 | 1010.9 |
| 20260831085150 | 21 | 9 | 4.8 | 19.3 | 0.00 | 0.84 | 0.84 | 66 | 1010.9 |
| 20260831084650 | 21 | 11 | 6.4 | 19.3 | 0.00 | 0.84 | 0.84 | 68 | 1010.7 |
| 20260831084149 | 21 | 271 | 1.6 | 16.1 | 0.00 | 0.84 | 0.84 | 69 | 1010.8 |
| 20260831083649 | 21 | 189 | 1.6 | 14.5 | 0.00 | 0.84 | 0.84 | 69 | 1010.8 |
| 20260831083149 | 20 | 129 | 14.5 | 22.5 | 0.00 | 0.84 | 0.84 | 69 | 1010.8 |
| 20260831082648 | 20 | 310 | 14.5 | 14.5 | 0.00 | 0.84 | 0.84 | 71 | 1010.8 |
| 20260831082148 | 20 | 315 | 9.7 | 22.5 | 0.00 | 0.84 | 0.84 | 70 | 1010.8 |
| 20260831081648 | 20 | 99 | 8.0 | 16.1 | 0.00 | 0.84 | 0.84 | 71 | 1010.7 |
| 20260831081148 | 20 | 340 | 9.7 | 20.9 | 0.00 | 0.84 | 0.84 | 71 | 1010.7 |
| 20260831080647 | 20 | 53 | 3.2 | 16.1 | 0.00 | 0.84 | 0.84 | 72 | 1010.6 |
| 20260831080147 | 20 | 36 | 3.2 | 17.7 | 0.00 | 0.84 | 0.84 | 72 | 1010.6 |
| 20260831075647 | 20 | 338 | 9.7 | 16.1 | 0.00 | 0.84 | 0.84 | 73 | 1010.6 |
| 20260831075146 | 20 | 23 | 3.2 | 11.3 | 0.00 | 0.84 | 0.84 | 76 | 1010.5 |
| 20260831074646 | 20 | 56 | 3.2 | 14.5 | 0.00 | 0.84 | 0.84 | 76 | 1010.5 |
| 20260831074146 | 20 | 88 | 9.7 | 17.7 | 0.00 | 0.84 | 0.84 | 76 | 1010.5 |
| 20260831073646 | 20 | 19 | 4.8 | 16.1 | 0.00 | 0.84 | 0.84 | 78 | 1010.6 |
| 20260831073145 | 20 | 284 | 6.4 | 12.9 | 0.00 | 0.84 | 0.84 | 78 | 1010.4 |
| 20260831072645 | 20 | 84 | 1.6 | 12.9 | 0.00 | 0.84 | 0.84 | 79 | 1010.7 |
| 20260831072145 | 20 | 5 | 9.7 | 16.1 | 0.00 | 0.84 | 0.84 | 79 | 1010.7 |
| 20260831071645 | 20 | 265 | 4.8 | 14.5 | 0.00 | 0.84 | 0.84 | 80 | 1010.7 |
| 20260831071144 | 20 | 9 | 1.6 | 9.7 | 0.00 | 0.84 | 0.84 | 80 | 1010.6 |
| 20260831070644 | 20 | 64 | 0.0 | 12.9 | 0.00 | 0.84 | 0.84 | 80 | 1010.7 |
| 20260831070144 | 20 | 358 | 4.8 | 11.3 | 0.00 | 0.84 | 0.84 | 80 | 1010.7 |
| 20260831065643 | 20 | 77 | 0.0 | 8.0 | 0.00 | 0.84 | 0.84 | 81 | 1010.6 |
| 20260831065143 | 20 | 5 | 1.6 | 12.9 | 0.00 | 0.84 | 0.84 | 81 | 1010.6 |
| 20260831064643 | 19 | 331 | 0.0 | 9.7 | 0.00 | 0.84 | 0.84 | 81 | 1010.5 |
| 20260831064143 | 20 | 292 | 1.6 | 9.7 | 0.00 | 0.84 | 0.84 | 81 | 1010.6 |
| 20260831063642 | 19 | 1 | 4.8 | 11.3 | 0.00 | 0.84 | 0.84 | 81 | 1010.6 |
| 20260831063142 | 19 | 305 | 1.6 | 6.4 | 0.00 | 0.84 | 0.84 | 82 | 1010.5 |
| 20260831062642 | 19 | 5 | 0.0 | 6.4 | 0.00 | 0.84 | 0.84 | 83 | 1010.5 |
| 20260831062141 | 19 | 267 | 1.6 | 4.8 | 0.00 | 0.84 | 0.84 | 83 | 1010.6 |
| 20260831061641 | 19 | 334 | 3.2 | 6.4 | 0.00 | 0.84 | 0.84 | 83 | 1010.6 |
| 20260831061141 | 19 | 292 | 0.0 | 4.8 | 0.00 | 0.84 | 0.84 | 84 | 1010.4 |
| 20260831060641 | 19 | 30 | 0.0 | 4.8 | 0.00 | 0.84 | 0.84 | 84 | 1010.3 |
| 20260831060140 | 19 | 329 | 0.0 | 6.4 | 0.00 | 0.84 | 0.84 | 84 | 1010.4 |
| 20260831055640 | 19 | 26 | 1.6 | 3.2 | 0.00 | 0.84 | 0.84 | 84 | 1010.3 |
| 20260831055140 | 19 | 8 | 0.0 | 9.7 | 0.00 | 0.84 | 0.84 | 84 | 1010.2 |
| 20260831054639 | 19 | 2 | 0.0 | 6.4 | 0.00 | 0.84 | 0.84 | 84 | 1010.2 |
| 20260831054139 | 19 | 77 | 1.6 | 8.0 | 0.00 | 0.84 | 0.84 | 84 | 1010.1 |
| 20260831053639 | 19 | 282 | 0.0 | 4.8 | 0.00 | 0.84 | 0.84 | 85 | 1010.1 |
| 20260831053139 | 19 | 7 | 0.0 | 3.2 | 0.00 | 0.84 | 0.84 | 85 | 1010.1 |
| 20260831052638 | 19 | 9 | 3.2 | 8.0 | 0.00 | 0.84 | 0.84 | 86 | 1010.0 |
| 20260831052138 | 18 | 351 | 0.0 | 3.2 | 0.00 | 0.84 | 0.84 | 86 | 1009.9 |
| 20260831051638 | 18 | 42 | 0.0 | 8.0 | 0.00 | 0.84 | 0.84 | 86 | 1009.9 |
| 20260831051137 | 18 | 340 | 0.0 | 8.0 | 0.00 | 0.84 | 0.84 | 86 | 1010.0 |
| 20260831050637 | 18 | 343 | 0.0 | 11.3 | 0.00 | 0.84 | 0.84 | 86 | 1009.9 |
| 20260831050137 | 18 | 165 | 3.2 | 8.0 | 0.00 | 0.84 | 0.84 | 86 | 1009.9 |
| 20260831045637 | 18 | 357 | 4.8 | 9.7 | 0.00 | 0.84 | 0.84 | 86 | 1009.9 |
| 20260831045136 | 18 | 324 | 3.2 | 8.0 | 0.00 | 0.84 | 0.84 | 86 | 1009.9 |
| 20260831044636 | 18 | 268 | 0.0 | 0.0 | 0.03 | 0.84 | 0.84 | 86 | 1009.9 |
| 20260831044136 | 18 | 268 | 0.0 | 8.0 | 0.03 | 0.84 | 0.84 | 86 | 1009.8 |
| 20260831043635 | 18 | 357 | 0.0 | 8.0 | 0.03 | 0.84 | 0.84 | 86 | 1009.7 |
| 20260831043135 | 18 | 337 | 4.8 | 8.0 | 0.03 | 0.84 | 0.84 | 86 | 1009.7 |
| 20260831042635 | 18 | 35 | 0.0 | 11.3 | 0.03 | 0.84 | 0.84 | 85 | 1009.6 |
| 20260831042135 | 18 | 125 | 0.0 | 8.0 | 0.03 | 0.84 | 0.84 | 85 | 1009.6 |
| 20260831041634 | 19 | 32 | 0.0 | 6.4 | 0.03 | 0.84 | 0.84 | 84 | 1009.5 |
| 20260831041134 | 18 | 345 | 0.0 | 3.2 | 0.05 | 0.84 | 0.84 | 84 | 1009.6 |
| 20260831040634 | 18 | 341 | 0.0 | 0.0 | 0.08 | 0.84 | 0.84 | 84 | 1009.5 |
| 20260831040133 | 18 | 341 | 0.0 | 6.4 | 0.13 | 0.84 | 0.84 | 84 | 1009.5 |
| 20260831035633 | 18 | 299 | 0.0 | 3.2 | 0.15 | 0.84 | 0.84 | 84 | 1009.5 |
| 20260831035133 | 19 | 338 | 0.0 | 6.4 | 0.18 | 0.84 | 0.84 | 83 | 1009.4 |
| 20260831034633 | 18 | 296 | 0.0 | 0.0 | 0.18 | 0.81 | 0.81 | 83 | 1009.4 |
| 20260831034132 | 18 | 296 | 0.0 | 0.0 | 0.20 | 0.81 | 0.81 | 83 | 1009.5 |
| 20260831033632 | 18 | 296 | 0.0 | 0.0 | 0.23 | 0.81 | 0.81 | 83 | 1009.5 |
| 20260831033132 | 18 | 296 | 0.0 | 6.4 | 0.25 | 0.81 | 0.81 | 83 | 1009.4 |
| 20260831032631 | 18 | 340 | 0.0 | 0.0 | 0.25 | 0.81 | 0.81 | 83 | 1009.5 |
| 20260831032131 | 18 | 340 | 0.0 | 0.0 | 0.25 | 0.81 | 0.81 | 83 | 1009.4 |
| 20260831031631 | 18 | 340 | 0.0 | 0.0 | 0.25 | 0.81 | 0.81 | 83 | 1009.5 |
| 20260831031131 | 18 | 340 | 0.0 | 0.0 | 0.23 | 0.79 | 0.79 | 83 | 1009.5 |
| 20260831030630 | 18 | 340 | 0.0 | 6.4 | 0.20 | 0.76 | 0.76 | 82 | 1009.5 |
| 20260831030130 | 18 | 319 | 4.8 | 4.8 | 0.20 | 0.71 | 0.71 | 82 | 1009.5 |
| 20260831025630 | 18 | 18 | 0.0 | 4.8 | 0.20 | 0.69 | 0.69 | 82 | 1009.6 |
| 20260831025129 | 18 | 118 | 0.0 | 3.2 | 0.20 | 0.66 | 0.66 | 82 | 1009.5 |
| 20260831024629 | 18 | 0 | 3.2 | 3.2 | 0.23 | 0.64 | 0.64 | 82 | 1009.5 |
| 20260831024129 | 18 | 358 | 0.0 | 3.2 | 0.25 | 0.61 | 0.61 | 82 | 1009.5 |
| 20260831023629 | 18 | 358 | 0.0 | 3.2 | 0.28 | 0.58 | 0.58 | 82 | 1009.4 |
| 20260831023128 | 18 | 2 | 0.0 | 6.4 | 0.28 | 0.56 | 0.56 | 81 | 1009.5 |
| 20260831022628 | 19 | 326 | 0.0 | 0.0 | 0.33 | 0.56 | 0.56 | 81 | 1009.4 |
| 20260831022128 | 18 | 326 | 0.0 | 4.8 | 0.38 | 0.56 | 0.56 | 80 | 1009.4 |
| 20260831021627 | 19 | 347 | 0.0 | 3.2 | 0.41 | 0.56 | 0.56 | 80 | 1009.5 |
| 20260831021127 | 19 | 322 | 0.0 | 0.0 | 0.41 | 0.56 | 0.56 | 80 | 1009.5 |
| 20260831020627 | 19 | 322 | 0.0 | 0.0 | 0.41 | 0.56 | 0.56 | 80 | 1009.7 |
| 20260831020127 | 19 | 322 | 0.0 | 0.0 | 0.36 | 0.51 | 0.51 | 80 | 1009.5 |
| 20260831015626 | 19 | 322 | 0.0 | 6.4 | 0.33 | 0.48 | 0.48 | 80 | 1009.4 |
| 20260831015126 | 20 | 358 | 3.2 | 6.4 | 0.30 | 0.46 | 0.46 | 78 | 1009.8 |
| 20260831014626 | 20 | 1 | 0.0 | 3.2 | 0.28 | 0.41 | 0.41 | 78 | 1009.7 |
| 20260831014125 | 20 | 315 | 0.0 | 0.0 | 0.23 | 0.36 | 0.36 | 78 | 1009.7 |
| 20260831013625 | 20 | 315 | 0.0 | 4.8 | 0.18 | 0.30 | 0.30 | 76 | 1009.8 |
| 20260831013125 | 20 | 87 | 0.0 | 0.0 | 0.15 | 0.28 | 0.28 | 76 | 1009.7 |
| 20260831012625 | 20 | 87 | 0.0 | 0.0 | 0.13 | 0.23 | 0.23 | 75 | 1009.6 |
| 20260831012124 | 20 | 87 | 0.0 | 0.0 | 0.08 | 0.18 | 0.18 | 75 | 1009.6 |
| 20260831011624 | 20 | 87 | 0.0 | 0.0 | 0.05 | 0.15 | 0.15 | 74 | 1009.5 |
| 20260831011124 | 20 | 87 | 0.0 | 0.0 | 0.08 | 0.15 | 0.15 | 74 | 1009.4 |
| 20260831010624 | 21 | 87 | 0.0 | 0.0 | 0.08 | 0.15 | 0.15 | 74 | 1009.2 |
| 20260831010123 | 21 | 87 | 0.0 | 0.0 | 0.10 | 0.15 | 0.15 | 74 | 1009.2 |
| 20260831005623 | 21 | 87 | 0.0 | 0.0 | 0.10 | 0.15 | 0.15 | 74 | 1009.3 |
| 20260831005123 | 21 | 87 | 0.0 | 0.0 | 0.13 | 0.15 | 0.15 | 73 | 1009.3 |
| 20260831004622 | 21 | 87 | 0.0 | 0.0 | 0.10 | 0.13 | 0.13 | 73 | 1009.3 |
| 20260831004122 | 21 | 87 | 0.0 | 0.0 | 0.13 | 0.13 | 0.13 | 73 | 1009.5 |
| 20260831003622 | 21 | 87 | 0.0 | 0.0 | 0.13 | 0.13 | 0.13 | 72 | 1009.4 |
| 20260831003122 | 21 | 87 | 0.0 | 0.0 | 0.13 | 0.13 | 0.13 | 72 | 1009.6 |
| 20260831002621 | 21 | 87 | 0.0 | 0.0 | 0.10 | 0.10 | 0.10 | 71 | 1009.6 |
| 20260831002121 | 21 | 87 | 0.0 | 0.0 | 0.10 | 0.10 | 0.10 | 70 | 1009.7 |
| 20260831001621 | 21 | 87 | 0.0 | 0.0 | 0.10 | 0.10 | 0.10 | 69 | 1009.8 |
| 20260831001120 | 21 | 87 | 0.0 | 0.0 | 0.08 | 0.08 | 0.08 | 68 | 1009.8 |
| 20260831000620 | 21 | 87 | 0.0 | 0.0 | 0.08 | 0.08 | 0.08 | 67 | 1009.8 |
| 20260831000120 | 21 | 87 | 0.0 | 0.0 | 0.05 | 0.05 | 0.05 | 66 | 1009.8 |
| 20260830235620 | 21 | 87 | 0.0 | 0.0 | 0.05 | 0.05 | 0.05 | 65 | 1009.7 |
| 20260830235119 | 21 | 87 | 0.0 | 0.0 | 0.03 | 0.03 | 0.03 | 64 | 1009.7 |
| 20260830234619 | 21 | 87 | 0.0 | 0.0 | 0.03 | 0.03 | 0.03 | 63 | 1009.7 |
| 20260830234119 | 22 | 87 | 0.0 | 3.2 | 0.00 | 0.00 | 0.00 | 61 | 1009.6 |
| 20260830233618 | 22 | 122 | 0.0 | 0.0 | 0.00 | 0.00 | 0.00 | 60 | 1009.5 |
| 20260830233118 | 22 | 122 | 0.0 | 0.0 | 0.00 | 0.00 | 0.00 | 59 | 1009.4 |
| 20260830232618 | 22 | 122 | 0.0 | 1.6 | 0.00 | 0.00 | 0.00 | 59 | 1009.4 |
| 20260830232118 | 22 | 122 | 1.6 | 4.8 | 0.00 | 0.00 | 0.00 | 58 | 1009.4 |
| 20260830231617 | 22 | 118 | 0.0 | 0.0 | 0.00 | 0.00 | 0.00 | 58 | 1009.4 |
| 20260830231117 | 22 | 118 | 0.0 | 0.0 | 0.00 | 0.00 | 0.00 | 58 | 1009.4 |
| 20260830230617 | 22 | 118 | 0.0 | 0.0 | 0.00 | 0.00 | 0.00 | 58 | 1009.3 |
| 20260830230116 | 22 | 118 | 0.0 | 0.0 | 0.00 | 0.00 | 0.00 | 58 | 1009.3 |
| 20260830225616 | 22 | 118 | 0.0 | 0.0 | 0.00 | 0.00 | 0.00 | 58 | 1009.2 |
| 20260830225116 | 22 | 118 | 0.0 | 0.0 | 0.00 | 0.00 | 0.00 | 58 | 1009.1 |
| 20260830224616 | 22 | 118 | 0.0 | 0.0 | 0.00 | 0.00 | 0.00 | 58 | 1009.2 |
| 20260830224115 | 22 | 118 | 0.0 | 0.0 | 0.00 | 0.00 | 0.00 | 57 | 1009.3 |
| 20260830223615 | 22 | 118 | 0.0 | 0.0 | 0.00 | 0.00 | 0.00 | 57 | 1009.3 |
| 20260830223115 | 22 | 118 | 0.0 | 0.0 | 0.00 | 0.00 | 0.00 | 57 | 1009.4 |
| 20260830222614 | 22 | 118 | 0.0 | 0.0 | 0.00 | 0.00 | 0.00 | 57 | 1009.4 |
| 20260830222114 | 22 | 118 | 0.0 | 0.0 | 0.00 | 0.00 | 0.00 | 57 | 1009.4 |
| 20260830221614 | 22 | 118 | 0.0 | 0.0 | 0.00 | 0.00 | 0.00 | 57 | 1009.3 |
| 20260830221114 | 22 | 118 | 0.0 | 0.0 | 0.00 | 0.00 | 0.00 | 57 | 1009.4 |
| 20260830220613 | 22 | 118 | 0.0 | 0.0 | 0.00 | 0.00 | 0.00 | 57 | 1009.4 |
| 20260830220113 | 22 | 118 | 0.0 | 0.0 | 0.00 | 0.00 | 0.00 | 57 | 1009.4 |
| 20260830215613 | 22 | 118 | 0.0 | 0.0 | 0.00 | 0.00 | 0.00 | 57 | 1009.5 |
| 20260830215112 | 22 | 118 | 0.0 | 0.0 | 0.00 | 0.00 | 0.00 | 57 | 1009.4 |
| 20260830214612 | 22 | 118 | 0.0 | 0.0 | 0.00 | 0.00 | 0.00 | 56 | 1009.5 |
| 20260830214112 | 22 | 118 | 0.0 | 0.0 | 0.00 | 0.00 | 0.00 | 56 | 1009.5 |
| 20260830213612 | 22 | 118 | 0.0 | 0.0 | 0.00 | 0.00 | 0.00 | 56 | 1009.7 |
| 20260830213111 | 22 | 118 | 0.0 | 0.0 | 0.00 | 0.00 | 0.00 | 56 | 1009.6 |
| 20260830212611 | 22 | 118 | 0.0 | 0.0 | 0.00 | 0.00 | 0.00 | 55 | 1009.5 |
| 20260830212111 | 22 | 118 | 0.0 | 0.0 | 0.00 | 0.00 | 0.00 | 55 | 1009.5 |
| 20260830211610 | 22 | 118 | 0.0 | 1.6 | 0.00 | 0.00 | 0.00 | 54 | 1009.5 |
| 20260830211111 | 22 | 74 | 0.0 | 0.0 | 0.00 | 0.00 | 0.00 | 54 | 1009.5 |
| 20260830210610 | 23 | 74 | 0.0 | 0.0 | 0.00 | 0.00 | 0.00 | 54 | 1009.5 |
| 20260830210110 | 23 | 74 | 0.0 | 0.0 | 0.00 | 0.00 | 0.00 | 53 | 1009.6 |
| 20260830205609 | 23 | 74 | 0.0 | 0.0 | 0.00 | 0.00 | 0.00 | 53 | 1009.6 |
| 20260830205109 | 23 | 74 | 0.0 | 0.0 | 0.00 | 0.00 | 0.00 | 53 | 1009.6 |
| 20260830204609 | 23 | 74 | 0.0 | 0.0 | 0.00 | 0.00 | 0.00 | 52 | 1009.7 |
| 20260830204108 | 23 | 74 | 0.0 | 0.0 | 0.00 | 0.00 | 0.00 | 52 | 1009.7 |
| 20260830203608 | 23 | 74 | 0.0 | 0.0 | 0.00 | 0.00 | 0.00 | 52 | 1009.7 |
| 20260830203108 | 23 | 74 | 0.0 | 0.0 | 0.00 | 0.00 | 0.00 | 51 | 1009.7 |
| 20260830202608 | 23 | 74 | 0.0 | 0.0 | 0.00 | 0.00 | 0.00 | 51 | 1009.7 |
| 20260830202107 | 23 | 74 | 0.0 | 0.0 | 0.00 | 0.00 | 0.00 | 51 | 1009.7 |
| 20260830201607 | 23 | 74 | 0.0 | 0.0 | 0.00 | 0.00 | 0.00 | 50 | 1009.7 |
| 20260830201107 | 23 | 74 | 0.0 | 0.0 | 0.00 | 0.00 | 0.00 | 50 | 1009.8 |
| 20260830200606 | 23 | 74 | 0.0 | 0.0 | 0.00 | 0.00 | 0.00 | 49 | 1009.8 |
| 20260830200106 | 23 | 74 | 0.0 | 0.0 | 0.00 | 0.00 | 0.00 | 49 | 1009.8 |
| 20260830195606 | 24 | 74 | 0.0 | 0.0 | 0.00 | 0.00 | 0.00 | 49 | 1009.8 |
| 20260830195106 | 24 | 74 | 0.0 | 0.0 | 0.00 | 0.00 | 0.00 | 49 | 1009.8 |
| 20260830194605 | 24 | 74 | 0.0 | 0.0 | 0.00 | 0.00 | 0.00 | 48 | 1009.8 |
| 20260830194105 | 24 | 74 | 0.0 | 0.0 | 0.00 | 0.00 | 0.00 | 48 | 1009.8 |
| 20260830193605 | 24 | 74 | 0.0 | 0.0 | 0.00 | 0.00 | 0.00 | 47 | 1009.8 |
| 20260830193104 | 24 | 74 | 0.0 | 0.0 | 0.00 | 0.00 | 0.00 | 46 | 1009.8 |
| 20260830192604 | 24 | 74 | 0.0 | 0.0 | 0.00 | 0.00 | 0.00 | 46 | 1009.8 |
| 20260830192104 | 24 | 74 | 0.0 | 0.0 | 0.00 | 0.00 | 0.00 | 46 | 1009.8 |
| 20260830191604 | 25 | 74 | 0.0 | 0.0 | 0.00 | 0.00 | 0.00 | 46 | 1009.9 |
| 20260830191103 | 25 | 74 | 0.0 | 0.0 | 0.00 | 0.00 | 0.00 | 45 | 1009.9 |
| 20260830190603 | 25 | 74 | 0.0 | 0.0 | 0.00 | 0.00 | 0.00 | 45 | 1010.0 |
| 20260830185603 | 25 | 74 | 0.0 | 0.0 | 0.00 | 0.00 | 0.00 | 44 | 1009.9 |
| 20260830185102 | 25 | 74 | 0.0 | 1.6 | 0.00 | 0.00 | 0.00 | 44 | 1009.8 |
| 20260830184602 | 25 | 90 | 0.0 | 0.0 | 0.00 | 0.00 | 0.00 | 44 | 1009.9 |
| 20260830184102 | 25 | 90 | 0.0 | 0.0 | 0.00 | 0.00 | 0.00 | 44 | 1009.8 |
| 20260830183601 | 25 | 90 | 0.0 | 1.6 | 0.00 | 0.00 | 0.00 | 43 | 1009.7 |
| 20260830183101 | 25 | 113 | 0.0 | 4.8 | 0.00 | 0.00 | 0.00 | 43 | 1009.6 |
| 20260830182601 | 25 | 68 | 3.2 | 4.8 | 0.00 | 0.00 | 0.00 | 43 | 1009.6 |
| 20260830182101 | 25 | 104 | 0.0 | 0.0 | 0.00 | 0.00 | 0.00 | 42 | 1009.5 |
| 20260830181600 | 25 | 104 | 0.0 | 1.6 | 0.00 | 0.00 | 0.00 | 42 | 1009.6 |
| 20260830181100 | 25 | 43 | 0.0 | 0.0 | 0.00 | 0.00 | 0.00 | 41 | 1009.5 |
| 20260830180600 | 26 | 43 | 0.0 | 3.2 | 0.00 | 0.00 | 0.00 | 41 | 1009.5 |
| 20260830180059 | 25 | 28 | 0.0 | 1.6 | 0.00 | 0.00 | 0.00 | 41 | 1009.6 |
| 20260830175559 | 26 | 54 | 0.0 | 6.4 | 0.00 | 0.00 | 0.00 | 41 | 1009.5 |
| 20260830175059 | 26 | 85 | 6.4 | 6.4 | 0.00 | 0.00 | 0.00 | 40 | 1009.5 |
| 20260830174559 | 26 | 74 | 0.0 | 8.0 | 0.00 | 0.00 | 0.00 | 40 | 1009.5 |
| 20260830174058 | 26 | 56 | 1.6 | 6.4 | 0.00 | 0.00 | 0.00 | 40 | 1009.4 |
| 20260830173558 | 26 | 29 | 1.6 | 9.7 | 0.00 | 0.00 | 0.00 | 39 | 1009.4 |
| 20260830173058 | 26 | 46 | 0.0 | 8.0 | 0.00 | 0.00 | 0.00 | 39 | 1009.4 |
| 20260830172557 | 26 | 92 | 1.6 | 8.0 | 0.00 | 0.00 | 0.00 | 39 | 1009.4 |
| 20260830172057 | 26 | 0 | 0.0 | 11.3 | 0.00 | 0.00 | 0.00 | 39 | 1009.4 |
| 20260830171557 | 26 | 50 | 4.8 | 11.3 | 0.00 | 0.00 | 0.00 | 39 | 1009.4 |
| 20260830171057 | 26 | 340 | 0.0 | 6.4 | 0.00 | 0.00 | 0.00 | 39 | 1009.4 |
| 20260830170556 | 26 | 81 | 3.2 | 8.0 | 0.00 | 0.00 | 0.00 | 38 | 1009.4 |
| 20260830170056 | 26 | 87 | 0.0 | 8.0 | 0.00 | 0.00 | 0.00 | 38 | 1009.5 |
| 20260830165556 | 27 | 106 | 8.0 | 11.3 | 0.00 | 0.00 | 0.00 | 37 | 1009.4 |
| 20260830165055 | 27 | 30 | 0.0 | 8.0 | 0.00 | 0.00 | 0.00 | 37 | 1009.4 |
| 20260830164555 | 27 | 132 | 4.8 | 11.3 | 0.00 | 0.00 | 0.00 | 37 | 1009.4 |
| 20260830164055 | 27 | 8 | 1.6 | 9.7 | 0.00 | 0.00 | 0.00 | 36 | 1009.4 |
| 20260830163555 | 27 | 97 | 3.2 | 8.0 | 0.00 | 0.00 | 0.00 | 36 | 1009.4 |
| 20260830163054 | 27 | 49 | 0.0 | 12.9 | 0.00 | 0.00 | 0.00 | 35 | 1009.3 |
| 20260830162554 | 28 | 257 | 4.8 | 14.5 | 0.00 | 0.00 | 0.00 | 35 | 1009.3 |
| 20260830162054 | 28 | 47 | 0.0 | 6.4 | 0.00 | 0.00 | 0.00 | 35 | 1009.3 |
| 20260830161553 | 28 | 5 | 4.8 | 9.7 | 0.00 | 0.00 | 0.00 | 34 | 1009.3 |
| 20260830161053 | 28 | 358 | 4.8 | 12.9 | 0.00 | 0.00 | 0.00 | 34 | 1009.4 |
| 20260830160553 | 28 | 348 | 3.2 | 14.5 | 0.00 | 0.00 | 0.00 | 34 | 1009.2 |
| 20260830160053 | 28 | 53 | 3.2 | 4.8 | 0.00 | 0.00 | 0.00 | 35 | 1009.2 |
| 20260830155552 | 28 | 30 | 1.6 | 11.3 | 0.00 | 0.00 | 0.00 | 34 | 1009.2 |
| 20260830155052 | 28 | 340 | 0.0 | 14.5 | 0.00 | 0.00 | 0.00 | 35 | 1009.3 |
| 20260830154552 | 28 | 95 | 4.8 | 11.3 | 0.00 | 0.00 | 0.00 | 35 | 1009.2 |
| 20260830154051 | 28 | 57 | 6.4 | 16.1 | 0.00 | 0.00 | 0.00 | 34 | 1009.3 |
| 20260830153551 | 28 | 241 | 0.0 | 6.4 | 0.00 | 0.00 | 0.00 | 35 | 1009.3 |
| 20260830153051 | 28 | 307 | 3.2 | 11.3 | 0.00 | 0.00 | 0.00 | 35 | 1009.4 |
| 20260830152551 | 28 | 202 | 0.0 | 6.4 | 0.00 | 0.00 | 0.00 | 35 | 1009.4 |
| 20260830152050 | 28 | 26 | 1.6 | 12.9 | 0.00 | 0.00 | 0.00 | 34 | 1009.4 |
| 20260830151550 | 28 | 84 | 4.8 | 11.3 | 0.00 | 0.00 | 0.00 | 34 | 1009.4 |
| 20260830151050 | 28 | 70 | 0.0 | 14.5 | 0.00 | 0.00 | 0.00 | 34 | 1009.5 |
| 20260830150550 | 28 | 9 | 1.6 | 11.3 | 0.00 | 0.00 | 0.00 | 34 | 1009.5 |
| 20260830150049 | 28 | 60 | 4.8 | 12.9 | 0.00 | 0.00 | 0.00 | 33 | 1009.5 |
| 20260830145549 | 28 | 341 | 3.2 | 14.5 | 0.00 | 0.00 | 0.00 | 33 | 1009.5 |
| 20260830145049 | 28 | 133 | 4.8 | 9.7 | 0.00 | 0.00 | 0.00 | 34 | 1009.4 |
| 20260830144548 | 28 | 142 | 9.7 | 14.5 | 0.00 | 0.00 | 0.00 | 34 | 1009.5 |
| 20260830144048 | 28 | 78 | 6.4 | 17.7 | 0.00 | 0.00 | 0.00 | 35 | 1009.5 |
| 20260830143548 | 28 | 130 | 14.5 | 14.5 | 0.00 | 0.00 | 0.00 | 35 | 1009.6 |
| 20260830143048 | 27 | 39 | 3.2 | 16.1 | 0.00 | 0.00 | 0.00 | 35 | 1009.5 |
| 20260830142547 | 28 | 137 | 1.6 | 12.9 | 0.00 | 0.00 | 0.00 | 37 | 1009.6 |
| 20260830142047 | 28 | 14 | 0.0 | 14.5 | 0.00 | 0.00 | 0.00 | 37 | 1009.6 |
| 20260830141547 | 28 | 67 | 3.2 | 14.5 | 0.00 | 0.00 | 0.00 | 37 | 1009.6 |
| 20260830141046 | 28 | 35 | 0.0 | 12.9 | 0.00 | 0.00 | 0.00 | 37 | 1009.6 |
| 20260830140546 | 27 | 63 | 1.6 | 16.1 | 0.00 | 0.00 | 0.00 | 37 | 1009.7 |
| 20260830140046 | 27 | 142 | 4.8 | 20.9 | 0.00 | 0.00 | 0.00 | 37 | 1009.7 |
| 20260830135546 | 27 | 12 | 8.0 | 17.7 | 0.00 | 0.00 | 0.00 | 36 | 1009.7 |
| 20260830135045 | 27 | 91 | 3.2 | 12.9 | 0.00 | 0.00 | 0.00 | 36 | 1009.7 |
| 20260830134545 | 27 | 320 | 3.2 | 17.7 | 0.00 | 0.00 | 0.00 | 37 | 1009.7 |
| 20260830134045 | 27 | 149 | 3.2 | 16.1 | 0.00 | 0.00 | 0.00 | 37 | 1009.7 |
| 20260830133544 | 28 | 143 | 4.8 | 14.5 | 0.00 | 0.00 | 0.00 | 38 | 1009.8 |
| 20260830133044 | 27 | 358 | 4.8 | 16.1 | 0.00 | 0.00 | 0.00 | 38 | 1009.8 |
| 20260830132544 | 27 | 351 | 4.8 | 8.0 | 0.00 | 0.00 | 0.00 | 38 | 1009.8 |
| 20260830132044 | 27 | 338 | 3.2 | 12.9 | 0.00 | 0.00 | 0.00 | 38 | 1009.9 |
| 20260830131543 | 27 | 22 | 4.8 | 16.1 | 0.00 | 0.00 | 0.00 | 38 | 1010.0 |
| 20260830131043 | 27 | 119 | 12.9 | 14.5 | 0.00 | 0.00 | 0.00 | 38 | 1010.0 |
| 20260830130543 | 28 | 50 | 1.6 | 19.3 | 0.00 | 0.00 | 0.00 | 37 | 1009.9 |
| 20260830130042 | 27 | 9 | 1.6 | 17.7 | 0.00 | 0.00 | 0.00 | 38 | 1009.8 |
| 20260830125542 | 27 | 92 | 3.2 | 14.5 | 0.00 | 0.00 | 0.00 | 38 | 1009.8 |
| 20260830125042 | 28 | 292 | 6.4 | 14.5 | 0.00 | 0.00 | 0.00 | 37 | 1009.9 |
| 20260830124542 | 28 | 42 | 4.8 | 16.1 | 0.00 | 0.00 | 0.00 | 38 | 1009.9 |
| 20260830124041 | 28 | 358 | 8.0 | 14.5 | 0.00 | 0.00 | 0.00 | 39 | 1010.0 |
| 20260830123541 | 28 | 275 | 3.2 | 14.5 | 0.00 | 0.00 | 0.00 | 38 | 1010.0 |
| 20260830123041 | 27 | 147 | 6.4 | 14.5 | 0.00 | 0.00 | 0.00 | 40 | 1010.0 |
| 20260830122540 | 27 | 12 | 3.2 | 16.1 | 0.00 | 0.00 | 0.00 | 39 | 1010.0 |
| 20260830122040 | 27 | 126 | 3.2 | 12.9 | 0.00 | 0.00 | 0.00 | 39 | 1010.0 |
| 20260830121540 | 27 | 67 | 0.0 | 11.3 | 0.00 | 0.00 | 0.00 | 40 | 1009.9 |
| 20260830121040 | 27 | 39 | 0.0 | 12.9 | 0.00 | 0.00 | 0.00 | 40 | 1009.9 |
| 20260830120539 | 27 | 305 | 6.4 | 14.5 | 0.00 | 0.00 | 0.00 | 40 | 1010.0 |
| 20260830120039 | 27 | 139 | 1.6 | 14.5 | 0.00 | 0.00 | 0.00 | 39 | 1009.9 |
| 20260830115539 | 27 | 358 | 11.3 | 14.5 | 0.00 | 0.00 | 0.00 | 40 | 1009.9 |
| 20260830115039 | 27 | 163 | 8.0 | 16.1 | 0.00 | 0.00 | 0.00 | 40 | 1010.0 |
| 20260830114538 | 27 | 18 | 0.0 | 16.1 | 0.00 | 0.00 | 0.00 | 41 | 1009.9 |
| 20260830114038 | 27 | 18 | 6.4 | 20.9 | 0.00 | 0.00 | 0.00 | 42 | 1010.0 |
| 20260830113538 | 27 | 352 | 9.7 | 19.3 | 0.00 | 0.00 | 0.00 | 42 | 1010.1 |
| 20260830113037 | 27 | 26 | 4.8 | 16.1 | 0.00 | 0.00 | 0.00 | 42 | 1009.9 |
| 20260830112537 | 27 | 333 | 6.4 | 14.5 | 0.00 | 0.00 | 0.00 | 43 | 1009.9 |
| 20260830112037 | 26 | 307 | 3.2 | 17.7 | 0.00 | 0.00 | 0.00 | 43 | 1009.9 |
| 20260830111536 | 26 | 112 | 6.4 | 17.7 | 0.00 | 0.00 | 0.00 | 44 | 1010.1 |
| 20260830111036 | 26 | 85 | 4.8 | 16.1 | 0.00 | 0.00 | 0.00 | 45 | 1010.1 |
| 20260830110536 | 26 | 84 | 0.0 | 17.7 | 0.00 | 0.00 | 0.00 | 47 | 1010.1 |
| 20260830110036 | 26 | 91 | 8.0 | 14.5 | 0.00 | 0.00 | 0.00 | 47 | 1010.1 |
| 20260830105535 | 25 | 43 | 3.2 | 11.3 | 0.00 | 0.00 | 0.00 | 48 | 1010.1 |
| 20260830105035 | 25 | 320 | 0.0 | 11.3 | 0.00 | 0.00 | 0.00 | 50 | 1010.1 |
| 20260830104535 | 25 | 106 | 4.8 | 9.7 | 0.00 | 0.00 | 0.00 | 51 | 1010.2 |
| 20260830104034 | 25 | 59 | 0.0 | 16.1 | 0.00 | 0.00 | 0.00 | 51 | 1010.2 |
| 20260830103534 | 25 | 111 | 6.4 | 11.3 | 0.00 | 0.00 | 0.00 | 51 | 1010.2 |